Akron, OH

4:41 AM EDT on April 24, 2017 (GMT -0400)
Akron Fulton International

Weather History for KAKR - June, 2014

Change the Weather History Date:

Saturday, June 7, 2014

  Actual Average (KCAK) Record (KCAK)
Temperature  
Mean Temperature 64 °F -  
Max Temperature 80 °F 77 °F 95 °F (1933)
Min Temperature 48 °F 57 °F 38 °F (1945)
Degree Days  
Heating Degree Days 2    
Growing Degree Days 14 (Base 50)    
Moisture  
Dew Point 49 °F    
Average Humidity 58    
Maximum Humidity 93    
Minimum Humidity 34    
Precipitation  
Precipitation 0.00 in - - ()
Sea Level Pressure  
Sea Level Pressure 30.01 in    
Wind  
Wind Speed 1 mph (ESE)    
Max Wind Speed 7 mph    
Max Gust Speed -    
Visibility 10 miles    
Events      
Averages and records for this station are not official NWS values.
T = Trace of Precipitation, MM = Missing Value Source: NWS Daily Summary

Daily Weather History Graph

Daily Weather History Graph

Search for Another Location

Airport or City:

Trip Planner

Search our weather history database for the weather conditions in past years. The results will help you decide how hot, cold, wet, or windy it might be!

Date:

Astronomy

Jun. 07, 2014 Rise Set
Actual Time 5:53 AM EDT 8:55 PM EDT
Civil Twilight 5:20 AM EDT 9:29 PM EDT
Nautical Twilight 4:38 AM EDT 10:11 PM EDT
Astronomical Twilight 3:48 AM EDT 11:01 PM EDT
Moon 3:09 PM EDT (6/7) 2:17 AM EDT (6/7)
Length of Visible Light 16h 08m
Length of Day
15h 02m
Waxing Gibbous, 67% of the Moon is Illuminated
Jun 7
Waxing Gibbous
Jun 13
Full
Jun 19
Last Quarter
Jun 27
New
Jul 5
First Quarter

Hourly Weather History & Observations

Time (EDT) Temp. Dew Point Humidity Pressure Visibility Wind Dir Wind Speed Gust Speed Precip Events Conditions
12:54 AM 53.1 °F 46.0 °F 77% 30.04 in 10.0 mi Calm Calm - N/A   Clear
1:54 AM 51.1 °F 46.0 °F 83% 30.03 in 10.0 mi Calm Calm - N/A   Clear
2:54 AM 52.0 °F 46.9 °F 83% 30.02 in 10.0 mi Calm Calm - N/A   Clear
3:54 AM 51.1 °F 46.9 °F 86% 30.03 in 10.0 mi Calm Calm - N/A   Clear
4:54 AM 48.9 °F 45.0 °F 86% 30.04 in 10.0 mi Calm Calm - N/A   Clear
5:54 AM 48.0 °F 46.0 °F 93% 30.04 in 7.0 mi Calm Calm - N/A   Clear
6:54 AM 51.1 °F 48.0 °F 89% 30.04 in 10.0 mi Calm Calm - N/A   Clear
7:54 AM 57.2 °F 51.8 °F 82% 30.08 in 10.0 mi Calm Calm - N/A   Clear
8:54 AM 64.4 °F 51.8 °F 64% 30.11 in 10.0 mi Calm Calm - N/A   Clear
9:54 AM 70.0 °F 48.9 °F 47% 30.08 in 10.0 mi East 3.5 mph - N/A   Clear
10:54 AM 73.0 °F 48.9 °F 42% 30.07 in 10.0 mi Variable 5.8 mph - N/A   Clear
11:54 AM 73.9 °F 48.9 °F 41% 30.05 in 10.0 mi SSE 5.8 mph - N/A   Clear
12:54 PM 75.0 °F 48.0 °F 38% 30.04 in 10.0 mi Variable 4.6 mph - N/A   Clear
1:54 PM 77.0 °F 48.0 °F 36% 30.02 in 10.0 mi SSE 3.5 mph - N/A   Clear
2:54 PM 77.0 °F 51.1 °F 40% 30.00 in 10.0 mi Variable 6.9 mph - N/A   Clear
3:54 PM 78.1 °F 48.9 °F 36% 29.99 in 10.0 mi ESE 5.8 mph - N/A   Clear
4:54 PM 78.1 °F 51.1 °F 39% 29.96 in 10.0 mi Calm Calm - N/A   Clear
5:54 PM 79.0 °F 50.0 °F 36% 29.95 in 10.0 mi Calm Calm - N/A   Clear
6:54 PM 79.0 °F 48.0 °F 34% 29.95 in 10.0 mi Calm Calm - N/A   Clear
7:54 PM 78.1 °F 50.0 °F 37% 29.93 in 10.0 mi Calm Calm - N/A   Clear
8:54 PM 73.9 °F 50.0 °F 43% 29.93 in 10.0 mi SE 3.5 mph - N/A   Clear
9:54 PM 64.9 °F 52.0 °F 63% 29.92 in 10.0 mi Calm Calm - N/A   Clear
10:54 PM 70.0 °F 52.0 °F 53% 29.91 in 10.0 mi East 6.9 mph - N/A   Clear
11:54 PM 66.9 °F 52.0 °F 59% 29.91 in 10.0 mi East 5.8 mph - N/A   Clear